Location: Columbia
(38.9520°N, 92.3340°W)
Time: 04:25:54
(UTC-05:00)

Cosmos 1603 - Visible Passes

Search period start: 19 April 2014 00:00
Search period end: 29 April 2014 00:00
Orbit: 832 x 860 km, 71.0° (Epoch: 17 April)

Date Brightness Start Highest point End Pass type
(mag) Time Alt. Az. Time Alt. Az. Time Alt. Az.
19 Apr 4.1 20:45:47 10° N 20:51:10 45° ENE 20:55:16 17° SE visible
19 Apr 5.5 22:30:37 10° NW 22:34:56 23° W 22:37:12 18° SW visible
20 Apr 4.2 20:32:00 10° N 20:37:21 43° ENE 20:42:24 11° SE visible
20 Apr 5.5 22:16:46 10° NW 22:21:09 24° WSW 22:24:20 15° SW visible
21 Apr 4.2 20:18:13 10° N 20:23:33 42° ENE 20:28:49 10° SE visible
21 Apr 5.5 22:02:55 10° NW 22:07:22 25° WSW 22:11:32 11° SSW visible
22 Apr 5.5 21:49:04 10° NW 21:53:35 26° WSW 21:58:05 10° SSW visible
23 Apr 5.5 21:35:13 10° NW 21:39:48 26° WSW 21:44:22 10° SSW visible
24 Apr 5.5 21:21:23 10° NW 21:26:01 27° WSW 21:30:38 10° SSW visible
25 Apr 5.5 21:07:32 10° NW 21:12:14 28° WSW 21:16:54 10° SSW visible
26 Apr 5.5 20:53:42 10° NW 20:58:27 29° WSW 21:03:10 10° SSW visible
27 Apr 5.6 20:39:51 10° NW 20:44:39 30° WSW 20:49:26 10° SSW visible
28 Apr 5.6 20:26:01 10° NW 20:30:52 31° WSW 20:35:41 10° SSW visible
